Simultaneous Nadir Overpasses (SNOs) Predictions

Prediction of SNOs between NOAA-20 and METOP-C Satellite Orbit:

Table of predicted SNOs for the next 14.0 days since TLE Epoch: 3/11/2023
Index Date (NOAA-20) Time (NOAA-20) Lat,Lon (NOAA-20) SZA (NOAA-20 ) Date (METOP-C) Time (METOP-C) Lat,Lon (METOP-C) SZA (METOP-C ) Distance(km) Time Diff (sec)
1 03/11/2023 03:54:50 72.53, 113.52 76.56 03/11/2023 03:53:36 72.54, 113.16 76.60 11.88 74
2 03/11/2023 04:45:33 -72.48, -79.06 103.52 03/11/2023 04:44:20 -72.48, -79.63 103.47 19.00 73
3 03/11/2023 05:36:14 72.23, 88.75 76.20 03/11/2023 05:35:04 72.20, 87.17 76.29 53.64 70
4 03/11/2023 06:26:57 -72.18,-103.84 103.88 03/11/2023 06:25:47 -72.20,-105.52 103.74 57.17 70
5 03/11/2023 07:17:38 71.92, 63.96 75.84 03/11/2023 07:16:31 71.92, 61.30 76.01 91.85 67
6 03/11/2023 08:08:21 -71.87,-128.63 104.23 03/11/2023 08:07:15 -71.87,-131.48 104.05 98.68 66



Historial Predications of SNOs between NOAA-20 and METOP-C
